sat.trackr.live / text

‹ back to catalog

STARLINK-31450

NORAD 59006 · 2024-036J

PAYLOAD ACTIVE UNKNOWN

§ Identity

Operator
Country
US
Launch date
2024-02-23
Launch site
AFWTR
Launch vehicle
Mass (kg)
RCS (m²)

Purposes: comms

External: N2YO · Heavens-Above · Gunter

§ Orbital elements

Epoch: 2026-05-25T02:21:05.593824Z

Period
94.11 min
Inclination
53.1600°
Eccentricity
0.0001110
Mean motion
15.30186579 rev/d
Perigee alt
474.5 km
Apogee alt
476.0 km
Semi-major
6,853.4 km
B*
-4.9253e-6
RAAN
83.0773°
Arg perigee
91.9824°
Mean anomaly
268.1303°
Rev number
12,702

§ Raw data

STARLINK-314501 59006U 24036J   26145.09798141 -.00000505  00000+0 -49253-5 0  99912 59006  53.1600  83.0773 0001110  91.9824 268.1303 15.30186579127021

JSON: /api/v1/satellites/59006 · /tle

For live sub-satellite position, see the globe view (requires WebGL).

§ Visibility from observer

Set your observer location to see the next 7 days of passes ≥ 10°. The values pass through the URL so the page stays shareable.

No JS? Fill the form by hand. The geolocation button needs JavaScript.